Location: Krasnoyarskiy Pitomnik
(51.1333°N, 71.6167°E)
Time: 10:19:21
(UTC+00:00)

HAWK-3A - Visible Passes

Search period start: 17 August 2022 00:00
Search period end: 27 August 2022 00:00
Orbit: 508 x 529 km, 97.6° (Epoch: 16 August)

Date Brightness Start Highest point End Pass type
(mag) Time Alt. Az. Time Alt. Az. Time Alt. Az.
17 Aug ? 20:33:13 60° E 20:33:19 60° ENE 20:37:08 10° N visible
17 Aug ? 22:08:17 14° W 22:08:17 14° W 22:10:00 10° NW visible
18 Aug ? 20:19:09 42° ENE 20:19:20 43° ENE 20:23:01 10° N visible
18 Aug ? 21:54:13 19° W 21:54:13 19° W 21:56:32 10° NW visible
19 Aug ? 20:05:05 31° ENE 20:05:24 31° ENE 20:08:50 10° N visible
19 Aug ? 21:40:09 26° WNW 21:40:09 26° WNW 21:42:51 10° NW visible
20 Aug ? 19:51:01 23° ENE 19:51:28 24° ENE 19:54:36 10° N visible
20 Aug ? 21:26:05 34° WNW 21:26:05 34° WNW 21:29:02 10° NNW visible
21 Aug ? 19:36:57 17° ENE 19:37:34 18° ENE 19:40:14 10° NNE visible
21 Aug ? 21:12:00 45° WNW 21:12:00 45° WNW 21:15:07 10° NNW visible
22 Aug ? 19:22:52 13° ENE 19:23:41 14° ENE 19:25:41 10° NNE visible
22 Aug ? 20:57:56 58° NW 20:57:56 58° NW 21:01:08 10° NNW visible
23 Aug ? 19:09:07 10° ENE 19:09:49 10° NE 19:10:31 10° NE visible
23 Aug ? 20:43:51 60° N 20:43:51 60° N 20:47:05 10° N visible
23 Aug ? 22:18:54 11° WNW 22:18:54 11° WNW 22:19:15 10° WNW visible
24 Aug ? 20:29:46 49° NE 20:29:46 49° NE 20:32:59 10° N visible
24 Aug ? 22:04:49 14° WNW 22:04:49 14° WNW 22:06:05 10° NW visible
25 Aug ? 20:15:40 37° NE 20:15:40 37° NE 20:18:49 10° N visible
25 Aug ? 21:50:44 19° WNW 21:50:44 19° WNW 21:52:30 10° NW visible
26 Aug ? 20:01:35 28° NE 20:01:35 28° NE 20:04:34 10° N visible
26 Aug ? 21:36:38 24° WNW 21:36:38 24° WNW 21:38:43 10° NNW visible
